Probability
0 0 0 0 0 0 0 0 0 0 0 1 3 4 3 2 2 3 5 6 8 8 7 8 7 8 14 18 17 16 15 10 4 1 4 9 8 4 3 2 2 1 1 0
0 0 0 0 0 0 0 0 0 0 0 1 2 3 3 3 3 2 3 5 7 8 9 11 9 9 14 19 20 18 16 12 6 2 4 8 7 4 3 5 5 4 3 2
0 0 0 0 0 0 0 0 0 0 0 1 2 2 3 4 3 2 3 4 6 8 12 13 12 10 12 16 18 17 16 14 9 4 3 5 6 4 4 7 8 8 7 7
0 0 0 0 0 0 0 0 0 0 0 0 1 2 3 4 3 2 3 4 5 7 10 12 11 10 10 11 13 15 16 15 11 6 2 3 5 4 4 7 9 10 10 9
0 0 0 0 0 0 0 0 0 0 0 0 0 2 4 4 3 4 4 4 5 6 8 10 11 10 9 8 10 15 16 15 13 9 4 3 3 2 3 7 10 11 10 8
0 0 0 0 0 0 0 0 0 0 0 0 0 2 4 3 2 5 6 4 4 6 9 12 13 13 9 8 11 16 17 15 14 12 9 6 3 2 4 8 10 9 9 8
0 0 0 0 1 0 0 0 0 0 0 0 1 3 4 2 1 3 5 5 5 6 9 13 19 20 15 13 16 20 20 18 16 14 12 11 7 4 4 6 7 7 8 9
0 0 0 0 0 0 0 0 0 0 0 0 2 5 4 3 2 4 7 8 9 10 12 16 22 25 22 19 22 26 26 23 19 16 14 13 10 5 3 4 4 5 8 10
1 1 1 0 0 0 0 0 0 0 0 0 2 5 6 5 5 7 11 14 16 17 19 20 22 24 23 23 26 30 32 29 24 19 16 14 11 7 6 7 8 9 11 12
1 1 1 0 0 0 0 0 0 0 0 0 2 5 6 7 7 9 13 18 21 23 24 24 23 24 25 27 27 30 33 33 29 24 19 16 15 13 13 14 16 17 18 19
0 0 0 0 0 0 0 0 0 0 0 0 2 4 6 8 9 9 13 19 23 26 28 28 26 26 28 28 28 29 32 34 32 27 22 20 21 21 20 20 22 23 24 25
0 0 0 0 0 0 0 0 0 0 1 0 2 5 8 9 10 11 14 21 26 30 30 30 29 30 30 30 30 31 32 32 31 30 27 26 28 28 27 26 27 26 26 28
1 1 0 0 0 0 0 0 0 0 0 0 3 8 10 11 12 13 17 24 30 31 30 31 33 35 35 35 35 35 32 31 32 32 31 33 35 36 34 33 32 30 29 31
2 1 0 0 0 0 0 0 0 0 0 1 5 11 13 13 14 18 23 29 32 33 34 37 39 40 42 44 44 41 35 31 33 34 35 37 40 41 39 36 34 33 33 33
1 1 0 0 0 0 0 0 0 0 0 2 7 14 17 17 19 23 26 31 33 35 39 42 44 47 49 51 51 47 42 39 38 39 40 40 42 42 39 35 33 32 32 32
0 0 0 0 0 0 0 0 0 0 0 3 10 19 25 25 26 28 29 32 35 38 42 46 51 55 57 56 53 50 47 47 48 47 46 45 44 42 38 34 31 31 32 32
0 1 1 0 0 1 1 0 0 1 2 6 13 23 30 32 32 34 36 38 41 43 46 51 56 59 60 56 51 48 47 49 52 52 49 47 46 44 42 38 36 35 36 37
2 3 2 0 1 2 3 2 2 2 4 8 14 24 33 36 37 39 43 46 49 50 51 53 54 54 56 55 52 49 47 47 50 49 47 47 46 46 46 43 41 40 41 42
3 4 2 1 2 4 4 4 4 5 7 13 22 32 38 39 39 41 45 47 49 49 50 50 48 47 51 54 55 54 51 49 48 46 46 47 47 48 47 45 43 43 45 46
3 4 3 1 2 4 5 5 6 8 15 26 35 42 46 43 43 45 45 43 42 44 46 44 43 44 47 51 54 55 55 51 48 47 47 48 49 50 49 47 46 47 48 49
2 3 3 2 3 6 8 9 13 21 32 40 45 49 52 51 52 53 48 42 40 41 42 41 42 44 45 47 49 52 54 52 48 47 49 50 50 49 48 50 50 49 49 49
2 5 7 7 10 15 19 22 30 40 47 47 47 52 55 54 54 53 50 45 41 40 40 41 43 47 48 49 51 54 55 53 50 49 51 51 51 47 46 48 47 44 44 43
5 8 12 16 22 28 32 37 43 48 48 45 44 48 50 46 44 43 42 40 36 36 38 41 43 47 48 50 54 57 56 53 51 51 50 50 49 45 43 42 38 35 35 35
6 9 14 22 29 32 34 36 39 42 43 41 39 39 39 37 35 35 34 33 31 33 36 38 40 42 44 47 51 53 52 50 48 47 46 44 42 39 36 35 32 30 30 30
6 7 13 22 27 28 28 29 31 35 39 38 36 34 32 31 30 31 30 29 29 31 32 33 34 36 39 42 44 43 44 46 45 43 40 37 34 31 29 28 27 26 26 26
7 6 11 21 25 25 27 26 27 32 36 36 34 32 29 28 27 26 27 28 29 30 30 30 30 32 35 38 39 38 40 44 44 40 36 33 30 28 25 25 24 21 20 20
Wind_Speed
14 13 12 11 10 6 5 5 2 3 5 5 6 8 10 11 10 11 11 11 11 11 12 11 10 10 9 8 7 5 5 4 3 2 2 2 2 2 2 3 3 3 3 3
13 16 14 11 8 7 8 7 5 3 3 3 4 6 7 10 10 10 11 11 12 12 12 11 10 10 10 9 7 6 5 5 3 3 2 2 2 2 3 2 3 4 3 3
18 14 13 11 10 10 10 7 5 4 2 3 3 2 3 5 7 10 10 11 13 14 14 12 11 10 10 10 9 7 6 5 4 3 3 2 2 1 2 3 3 3 4 4
17 16 14 13 12 11 8 6 6 7 5 5 4 2 5 6 7 11 11 11 13 14 15 14 12 11 10 10 9 8 7 5 4 4 3 4 4 3 3 3 3 4 4 4
17 16 15 15 13 11 9 7 6 7 8 8 6 3 6 8 9 11 12 12 12 14 15 14 13 11 11 11 10 9 7 5 5 4 4 3 3 3 3 3 4 4 3 3
18 15 15 15 12 11 10 8 7 8 8 9 7 5 5 7 7 10 11 11 12 13 14 14 13 12 11 11 10 10 8 6 5 5 4 3 2 1 2 3 4 3 3 3
19 18 16 14 14 12 12 10 7 6 6 8 7 4 4 8 7 8 11 11 12 13 13 14 13 12 11 11 11 10 9 7 6 6 4 4 3 2 2 3 3 3 3 3
18 17 17 15 14 12 12 11 8 8 7 6 3 4 2 7 7 8 9 11 13 13 13 14 13 12 11 11 10 10 10 8 8 6 5 4 4 3 3 3 3 3 2 2
13 14 14 15 15 15 14 11 11 10 9 8 4 2 3 2 5 9 10 11 12 13 14 14 14 13 12 11 10 10 9 8 7 7 6 5 5 4 3 4 4 2 2 3
14 11 12 13 13 15 15 12 7 9 8 8 6 5 4 2 4 7 9 10 10 11 12 13 13 13 12 11 10 9 10 8 7 7 6 6 5 5 4 3 4 2 2 2
14 11 13 14 14 13 12 14 11 8 8 7 6 4 5 5 4 5 7 9 10 10 10 10 11 12 12 11 11 10 9 8 7 7 6 5 5 5 5 4 3 4 3 3
11 11 11 12 11 13 13 15 13 10 8 8 7 2 3 4 3 5 6 7 8 9 9 9 10 10 10 11 11 10 10 10 8 7 6 5 5 5 5 5 4 4 4 4
5 8 10 12 12 13 13 13 13 13 9 8 8 3 2 2 1 2 6 8 8 8 8 8 8 8 8 7 7 8 8 8 9 8 7 6 5 5 5 4 4 4 4 4
4 9 12 12 9 9 13 14 14 13 9 8 7 4 4 3 1 2 6 8 8 8 7 7 7 6 6 6 5 6 7 7 7 7 7 6 5 5 4 4 4 4 4 4
7 10 13 14 13 11 11 13 14 13 12 9 3 3 5 3 1 2 5 7 7 7 7 7 6 5 5 5 5 5 5 5 5 6 7 6 5 5 4 4 4 4 4 5
7 8 11 14 15 13 12 13 13 13 11 7 6 5 3 3 2 4 5 5 6 7 6 5 6 5 5 4 4 3 3 4 4 4 5 5 5 4 4 4 4 4 4 4
7 7 11 12 13 14 14 11 11 11 9 6 6 4 4 1 3 4 6 6 6 6 5 4 3 4 4 4 3 3 3 3 4 3 3 4 4 4 4 5 4 5 5 4
7 7 8 10 12 15 9 8 10 10 7 4 2 6 7 4 5 5 6 7 6 6 5 4 3 3 3 3 4 3 4 4 4 4 4 4 4 4 4 4 4 4 4 4
8 6 8 9 12 12 9 7 7 7 4 2 2 6 8 6 5 5 6 7 6 5 4 3 2 2 3 3 2 2 3 3 3 3 3 4 4 4 4 4 4 4 4 4
9 7 9 10 11 10 6 6 5 5 4 1 3 5 6 4 2 4 6 6 6 5 3 3 3 3 3 2 2 2 2 1 1 1 2 2 3 3 4 4 4 3 3 3
10 9 12 12 11 5 4 4 4 4 1 4 5 6 5 2 3 4 6 6 5 5 4 4 3 3 2 2 2 1 1 1 0 0 0 1 2 3 3 3 3 3 3 4
7 8 9 9 9 4 6 4 4 4 6 7 7 8 8 8 8 6 6 6 5 4 4 3 3 3 2 1 1 1 1 0 0 0 0 1 1 3 3 2 3 4 4 5
4 3 2 1 0 5 8 8 6 6 6 6 7 7 7 7 7 6 5 4 4 3 3 3 3 2 2 2 1 1 0 1 1 0 1 1 1 1 2 3 4 4 4 5
2 1 1 3 4 6 7 7 6 6 5 5 6 6 6 6 6 5 4 4 3 3 3 3 2 2 2 2 1 1 1 0 1 1 2 2 1 2 2 2 3 3 4 4
1 1 1 3 4 4 5 5 5 5 5 5 6 6 7 6 5 4 3 3 3 3 3 2 1 1 1 1 1 1 1 0 1 1 2 2 3 3 2 2 2 3 3 4
4 2 1 1 3 3 5 4 5 6 5 5 6 7 6 5 5 4 3 3 3 3 3 2 2 2 1 1 1 1 1 1 1 2 3 3 3 2 3 3 2 2 3 3
Wind_Direction
231 235 237 237 223 221 243 274 235 190 183 174 157 152 159 164 169 163 162 160 160 157 152 152 153 147 145 143 143 147 147 139 147 146 157 163 160 153 145 146 148 149 151 148
233 238 241 244 239 225 237 249 253 230 186 188 169 164 162 169 173 167 165 164 161 159 155 155 159 155 153 151 152 155 156 154 166 154 162 173 157 156 147 144 149 161 155 157
232 235 236 242 243 241 244 233 244 241 221 238 221 174 177 171 176 169 171 169 167 164 161 162 167 164 158 157 161 167 163 162 172 165 174 160 147 163 144 150 153 166 166 164
237 240 239 235 239 236 247 250 248 252 252 253 229 181 195 194 199 179 178 174 170 166 164 167 169 168 164 162 164 158 159 161 167 179 187 179 175 180 160 158 156 164 168 168
237 236 240 241 239 244 252 254 267 272 269 261 235 224 189 181 211 185 176 175 172 168 165 167 167 168 167 164 162 158 157 163 170 183 188 199 185 176 155 151 154 164 166 170
248 240 239 246 244 246 253 259 270 273 273 269 254 244 176 177 195 175 172 172 169 165 162 163 163 163 167 166 164 162 160 166 173 186 187 191 199 188 150 157 161 180 169 171
236 240 236 238 243 238 239 244 248 253 250 262 275 266 166 167 185 176 163 168 163 161 159 158 159 164 167 168 166 162 159 165 174 183 183 183 188 189 178 183 179 193 174 167
228 227 229 230 237 240 239 240 240 253 257 261 253 264 196 157 167 154 153 162 159 160 159 159 162 161 165 166 162 158 162 168 174 178 177 176 183 194 193 205 201 193 190 158
237 232 226 225 229 235 243 242 246 254 259 269 257 257 259 169 152 148 151 154 159 162 160 162 164 166 169 168 163 160 160 167 174 175 169 179 192 204 198 185 202 204 185 172
248 251 236 226 231 232 240 248 247 256 258 258 248 223 224 218 186 160 155 158 160 160 163 164 165 167 167 165 161 160 159 165 169 172 180 182 191 197 198 197 190 190 187 173
244 253 243 228 221 232 231 242 247 257 262 265 252 216 190 200 207 175 166 162 161 158 155 157 162 164 162 163 164 163 160 166 173 177 185 180 180 190 196 201 189 185 188 179
238 251 255 243 232 234 238 241 244 246 247 256 267 233 184 192 204 182 166 150 149 145 148 155 157 157 160 165 168 168 170 176 180 179 180 181 181 187 196 196 189 186 186 190
256 254 252 241 233 224 235 247 250 256 253 246 252 221 226 212 203 175 136 132 131 133 138 147 145 148 152 159 163 165 172 178 180 177 181 181 189 190 195 193 187 189 191 197
257 254 256 251 244 236 231 237 244 252 258 251 242 187 206 218 196 118 121 128 135 136 132 140 138 145 147 154 154 156 168 176 179 175 180 180 187 186 189 190 186 187 189 194
241 245 252 263 262 256 252 246 244 247 256 262 240 206 198 196 173 109 111 123 132 131 134 135 142 146 149 145 141 149 164 168 173 174 181 181 184 186 187 187 188 189 196 202
245 267 262 259 261 259 253 251 248 246 251 239 214 215 186 171 140 120 119 130 135 134 135 140 139 134 133 131 140 149 164 155 148 166 176 171 179 188 193 193 190 189 201 207
238 249 259 257 253 253 248 248 251 252 254 241 220 190 143 163 112 112 116 121 123 114 111 100 111 122 129 139 143 157 157 145 151 166 172 169 182 197 204 208 199 197 203 207
253 251 256 259 256 251 249 255 251 247 249 251 164 140 141 162 122 102 105 107 105 107 105 99 103 114 129 135 145 150 158 162 167 174 184 186 186 200 205 213 210 209 208 211
232 244 253 255 253 252 250 249 254 254 248 286 146 137 128 125 120 110 103 100 98 97 93 95 99 98 98 106 107 124 157 166 177 188 196 194 193 198 201 212 217 218 216 217
216 220 242 248 253 254 265 288 288 258 209 108 102 106 110 137 149 122 104 99 104 101 95 90 81 78 81 88 113 118 134 148 188 213 213 195 189 200 212 220 220 222 221 227
207 214 231 244 250 252 336 325 306 256 25 54 81 92 97 79 62 109 116 105 96 97 91 84 78 72 69 71 96 132 153 153 241 304 248 214 196 205 215 217 214 220 226 227
219 222 225 240 247 242 2 24 37 59 48 57 65 77 83 85 86 85 90 91 86 85 85 80 73 72 75 77 90 141 164 92 68 105 234 236 226 241 234 208 211 218 227 233
244 284 266 277 123 75 55 64 71 78 73 70 72 76 82 94 95 90 79 74 82 76 67 73 65 53 45 60 79 80 44 68 67 153 202 217 212 231 233 222 224 227 228 235
210 301 161 120 95 79 72 65 62 69 80 85 84 91 88 98 95 84 70 57 51 57 46 54 67 49 28 33 46 42 5 158 190 223 218 215 212 234 256 249 238 238 238 238
21 209 192 122 124 111 96 86 83 72 72 75 79 86 88 87 80 74 65 50 35 28 24 21 26 26 6 12 11 359 349 232 251 260 250 237 234 232 234 241 252 251 247 236
350 10 215 143 147 130 110 87 85 81 72 67 74 80 80 79 70 58 47 42 30 14 6 2 356 343 339 350 341 325 306 253 268 267 258 250 248 240 232 226 236 263 244 240